Weather in Newcastle

South Africa     27°45′17″S   29°55′44″E
temp.,
°C
wind,
m/s
gust,
m/s
humid.,
%
clouds,
%
prec.,
mm/h
press.,
hPa
HPBL,
m
4 july, mon
mon423:00+10nw24500 0.0 102598
02:00+9nw24550 0.0 102594
05:00+8nw23590 0.0 102664
08:00+9nw13560 0.0 102795
11:00+18sse22310 0.0 1025930
14:00+20se22240 0.0 10221722
17:00+17ese22310 0.0 102233
20:00+12sw11420 0.0 102614
5 july, tue
tue523:00+10nw11510 0.0 102735
02:00+9wnw11580 0.0 102641
05:00+8wnw11620 0.0 102637
08:00+9nw12570 0.0 102779
11:00+19nnw14300 0.0 1023959
14:00+22nw47220 0.0 10192029
17:00+18nw22330 0.0 101925
20:00+13nw22450 0.0 102257
6 july, wed
wed623:00+11nw24500 0.0 102379
02:00+10nw24560 0.0 102287
05:00+9nw24620 0.0 102164
08:00+11nw25590 0.0 1023144
11:00+20wnw38300 0.0 10211932
14:00+22w56170 0.0 10192262
17:00+17w24150 0.0 102179
20:00+10se25570 0.0 1026128
7 july, thu
thu723:00+8wnw11828 0.0 102751
02:00+7wnw11582 0.0 102747
05:00+6nw11500 0.0 102839
08:00+7wnw11420 0.0 102985
11:00+17nw02180 0.0 1025556
14:00+22ese12110 0.0 1022980
17:00+17se11160 0.0 102211
20:00+11wnw12230 0.0 102644
8 july, fri
fri823:00+9nw11250 0.0 102839
02:00+8wnw11270 0.0 102831
05:00+6nw11280 0.0 102922
08:00+8wnw11260 0.0 103054
11:00+18ese01150 0.0 1027349
14:00+22ese11110 0.0 1023668
17:00+17ese11160 0.0 102411
20:00+12wsw11240 0.0 102719